YOKOTA_(JASDF/USAF) current weather conditions

sailwx.info

Wind from 060 at 5 knots

Air temperature 4.0° C
Visibility: greater than 8.7 NM
Dewpoint -2.0° C

Last reported at 2017-Feb-27 12:22 UTC.
Time now 2017-Feb-27 14:05 UTC

Location: N 35°45' E 139°21'.
View on Google Maps.

See reports from other nearby stations

  
Tides and Currents Weather Stations Pressure Air Temp Water Temp Dewpoint Dewpoint Depression Visibility Wind Speed Wind Dir Waves Ship Positions
date/time (UTC)wind fromknots sea level pressurealtimeterstation pressurevisibilityair tempwater tempwave heightnotes
2017-Feb-27 12:22 060 5 8.7 4.0
2017-Feb-27 11:58 060 7 8.7 4.0
2017-Feb-27 11:09 070 6 8.7 5.0
2017-Feb-27 10:58 090 7 8.7 5.0
2017-Feb-27 09:58 110 6 8.7 5.0
2017-Feb-27 08:58 110 7 8.7 6.0
2017-Feb-27 07:58 100 6 8.7 7.0
2017-Feb-27 06:58 8.7 9.0
2017-Feb-27 05:58 120 4 8.7 9.0
2017-Feb-27 04:58 120 5 8.7 9.0
2017-Feb-27 03:58 110 7 8.7 9.0
2017-Feb-27 02:58 040 7 8.7 8.0
2017-Feb-27 01:58 070 11 8.7 7.0
2017-Feb-27 00:58 030 12 gusting 18 8.7 7.0
2017-Feb-26 23:58 010 12 8.7 6.0
2017-Feb-26 22:58 010 6 8.7 2.0
2017-Feb-26 21:58 8.7 1.0
2017-Feb-26 20:58 340 4 8.7 2.0
2017-Feb-26 19:58 8.7 2.0
2017-Feb-26 18:58 360 2 8.7 2.0
2017-Feb-26 17:58 030 6 8.7 4.0
2017-Feb-26 16:58 030 8 8.7 5.0
2017-Feb-26 15:58 020 9 8.7 6.0
2017-Feb-26 14:58 360 6 8.7 7.0
2017-Feb-26 13:58 350 6 8.7 8.0
2017-Feb-26 12:58 360 5 8.7 7.0
2017-Feb-26 11:58 010 6 8.7 7.0
2017-Feb-26 10:58 8.7 8.0
2017-Feb-26 09:58 220 5 8.7 9.0
2017-Feb-26 08:58 190 7 8.7 9.0
2017-Feb-26 07:58 160 5 8.710.0
2017-Feb-26 06:58 180 8 8.711.0
2017-Feb-26 05:58 8.712.0
2017-Feb-26 04:58 160 5 8.712.0
2017-Feb-26 03:58 180 7 8.713.0
2017-Feb-26 02:58 8.712.0
2017-Feb-26 01:58 8.711.0
2017-Feb-26 00:58 8.7 9.0
2017-Feb-25 23:58 8.7 7.0
2017-Feb-25 22:58 8.7 4.0
2017-Feb-25 21:58 8.7 1.0
2017-Feb-25 20:58 8.7 1.0
2017-Feb-25 19:58 8.7 1.0
2017-Feb-25 18:58 8.7 2.0
2017-Feb-25 17:58 280 2 8.7 3.0
2017-Feb-25 17:14 290 5 8.7 4.0
2017-Feb-25 17:02 320 5 8.7 5.0
2017-Feb-25 17:00 310 5 8.7 5.0
2017-Feb-25 16:58 320 4 8.7 5.0
2017-Feb-25 16:50 330 4 8.7 4.0
2017-Feb-25 15:58 020 7 8.7 4.0
2017-Feb-25 15:48 030 6 8.7 4.0
2017-Feb-25 14:58 360 6 8.7 3.0
2017-Feb-25 14:56 8.7 3.0